Regional Weather Roundup
Issued by NWS Green Bay, WI

Home | Current Version | Previous Version | Text Only | Print | Product List | Glossary On
Versions: 1 2 3 4 5 6 7 8 9 10 11 12 13 14 15 16 17 18 19 20 21 22 23 24 25 26 27 28 29 30 31 32 33 34 35 36 37 38 39 40 41 42 43 44 45 46 47 48 49 50
000
ASUS43 KGRB 280659
RWRGRB

NORTH-CENTRAL AND NORTHEAST WISCONSIN REGIONAL WEATHER ROUNDUP
NATIONAL WEATHER SERVICE GREEN BAY WI
100 AM CST SAT FEB 28 2015

WIZ005-009-010>012-018-019-280800-
NORTH CENTRAL WISCONSIN

CITY           SKY/WX    TMP DP  RH WIND       PRES   REMARKS
IRONWOOD       CLEAR      7  -2  66 SW10      30.41S WCI  -8
MANITOWISH WTR NOT AVBL
ARBOR VITAE    NOT AVBL
EAGLE RIVER    NOT AVBL
LAND O LAKES   NOT AVBL
RHINELANDER    CLEAR     -4 -10  75 SW6       30.44R WCI -16
PHILLIPS       NOT AVBL
ANTIGO         NOT AVBL
TOMAHAWK       NOT AVBL
MERRILL        NOT AVBL
$$

WIZ013-073-280800-
NORTHEAST WISCONSIN

CITY           SKY/WX    TMP DP  RH WIND       PRES   REMARKS
IRON MOUNTAIN  CLEAR     -2 -10  69 CALM      30.45R
MARINETTE      CLEAR      7  -6  56 W5        30.54R WCI  -2
$$

WIZ017-030-035>037-045-280800-
CENTRAL WISCONSIN

CITY           SKY/WX    TMP DP  RH WIND       PRES   REMARKS
MEDFORD        NOT AVBL
WAUSAU         CLEAR      2  -7  66 CALM      30.50S
MOSINEE        NOT AVBL
MARSHFIELD     PTCLDY    -2  -9  72 SW6       30.52R WCI -14
WISC RAPIDS    CLEAR      0  -9  65 SW6       30.57R WCI -12
STEVENS POINT  NOT AVBL
WAUPACA        NOT AVBL
SHAWANO        NOT AVBL
CLINTONVILLE   NOT AVBL
$$

WIZ038-039-048-051-280800-
FOX VALLEY

CITY           SKY/WX    TMP DP  RH WIND       PRES   REMARKS
NWS GREEN BAY  CLEAR      6  -4  63 SW6       30.58R WCI  -4
APPLETON       NOT AVBL
OSHKOSH        CLEAR      4  -5  66 SW3       30.58S
FOND DU LAC    CLEAR      3  -6  66 SW7       30.60R WCI  -9
$$

WIZ022-050-052-280800-
EAST CENTRAL WISCONSIN

CITY           SKY/WX    TMP DP  RH WIND       PRES   REMARKS
STURGEON BAY   CLEAR      7  -6  56 SW6       30.57R WCI  -3
MANITOWOC      NOT AVBL
SHEBOYGAN      CLEAR      4  -6  63 W10       30.59S WCI -11
$$

LMZ563-521-522-541>543-280800-
LAKESHORE

STATION/POSITION TIME  TEMP    WIND        PRES    VSBY  WAVE
                       AIR SEA DIR/SP/G                  HT/PER
                 (UTC) (F)     (DEG/KT/KT) (MB)    (MI)  (FT/S)
SHEBOYGAN LKSHOR 0600    9     250/ 11/ 14 1037.7F
KEWAUNEE LKSHORE 0600          250/  7/ 12   N/A
NORTHPORT PIER   0600   10     240/  4/  9 1033.9R
CHAMBERS ISLAND  0600    8     200/  7/ 10 1033.9S
MENOMINEE LKSHOR 0600    8     220/  7     1034.8R
$$



USA.gov is the U.S. government's official web portal to all federal, state and local government web resources and services.